This demonstration page uses our WeatherBlox Daily Observations layout. Learn more.

Left ArrowRight Arrow

Hourly Observations for August 15, 2020

Temp ( °F °C ) Dew Point ( °F °C ) Humidity (%) Winds ( mph kmh ) Pressure ( in mb ) Visibility ( mi km ) Precip ( " mm )
12:53 am 00:53 Cloudy 70 21.1 64 17.8 82 82 Calm 30.04 1017 10 16 0.00 0.00
1:53 am 01:53 Mostly Clear 69 20.6 63 17.2 81 81 NNE 6 9 30.05 1018 10 16 0.00 0.00
2:53 am 02:53 Clear 66 18.9 62 16.7 87 87 NNW 5 7 30.05 1018 10 16 0.00 0.00
3:53 am 03:53 Clear 64 17.8 60 15.6 87 87 undefined N/A 30.04 1017 10 16 0.00 0.00
4:53 am 04:53 Clear 62 16.7 59 15 90 90 ENE 6 9 30.05 1018 10 16 0.00 0.00
5:53 am 05:53 Clear 63 17.2 58 14.4 84 84 NE 7 11 30.06 1018 10 16 0.00 0.00
6:53 am 06:53 Sunny 62 16.7 57 13.9 84 84 ENE 6 9 30.07 1018 10 16 0.00 0.00
7:53 am 07:53 Sunny 65 18.3 59 15 81 81 E 5 7 30.10 1019 10 16 0.00 0.00
8:53 am 08:53 Sunny 69 20.6 60 15.6 73 73 E 8 13 30.12 1020 10 16 0.00 0.00
9:53 am 09:53 Sunny 73 22.8 57 13.9 57 57 ESE 10 17 30.11 1020 10 16 0.00 0.00
10:53 am 10:53 Sunny 77 25 56 13.3 48 48 ESE 7 11 30.11 1020 10 16 0.00 0.00
11:53 am 11:53 Sunny 81 27.2 48 8.9 32 32 SSE 7 11 30.11 1020 10 16 0.00 0.00
12:53 pm 12:53 Sunny 82 27.8 52 11.1 35 35 SSE 12 19 30.10 1019 10 16 0.00 0.00
1:53 pm 13:53 Sunny 83 28.3 49 9.4 31 31 S 9 15 30.10 1019 10 16 0.00 0.00
2:53 pm 14:53 Sunny 83 28.3 50 10 32 32 VRB 6 9 30.09 1019 10 16 0.00 0.00
3:53 pm 15:53 Sunny 84 28.9 51 10.6 32 32 VRB 5 7 30.08 1019 10 16 0.00 0.00
4:53 pm 16:53 Sunny 84 28.9 51 10.6 32 32 S 8 13 30.07 1018 10 16 0.00 0.00
5:53 pm 17:53 Sunny 84 28.9 49 9.4 30 30 S 8 13 30.06 1018 10 16 0.00 0.00
6:53 pm 18:53 Sunny 81 27.2 53 11.7 38 38 SE 9 15 30.07 1018 10 16 0.00 0.00
7:53 pm 19:53 Sunny 77 25 53 11.7 43 43 SSE 7 11 30.06 1018 10 16 0.00 0.00
8:53 pm 20:53 Clear 74 23.3 56 13.3 54 54 SE 7 11 30.06 1018 10 16 0.00 0.00
9:53 pm 21:53 Mostly Cloudy 74 23.3 55 12.8 52 52 SE 7 11 30.07 1018 10 16 0.00 0.00
10:53 pm 22:53 Clear 73 22.8 55 12.8 53 53 SSE 6 9 30.07 1018 10 16 0.00 0.00
11:53 pm 23:53 Mostly Cloudy 73 22.8 55 12.8 53 53 SSE 6 9 30.08 1019 10 16 0.00 0.00

Powered by AerisWeather